• In France
  • List of Countries
  • For 7 days
  • Water Temperature
  • Satellite Maps
  • Weather Map
  • Weather Widgets
  • user-avatar
    Login

    Hourly Weather Man

    Today, 18 February, Sunday

    Time Temperature Precipitation Wind Pressure Humidity
    00:00 +27°C° 0 mm 2 mps 724 mmHg 70%
    01:00 +26°C° 0 mm 2 mps 724 mmHg 77%
    02:00 +25°C° 0 mm 2 mps 724 mmHg 85%
    03:00 +25°C° 0 mm 2 mps 724 mmHg 86%
    04:00 +25°C° 0 mm 1 mps 724 mmHg 87%
    05:00 +25°C° 0 mm 1 mps 724 mmHg 88%
    06:00 +26°C° 0 mm 2 mps 724 mmHg 83%
    07:00 +27°C° 0 mm 2 mps 725 mmHg 77%
    08:00 +28°C° 0 mm 2 mps 725 mmHg 71%
    09:00 +30°C° 0 mm 2 mps 725 mmHg 62%
    10:00 +34°C° 0 mm 2 mps 725 mmHg 52%
    11:00 +36°C° 0 mm 2 mps 725 mmHg 42%
    12:00 +37°C° 0 mm 2 mps 724 mmHg 38%
    13:00 +37°C° 0 mm 1 mps 723 mmHg 34%
    14:00 +39°C° 0 mm 1 mps 722 mmHg 30%
    15:00 +37°C° 0 mm 1 mps 722 mmHg 35%
    16:00 +35°C° 0 mm 1 mps 722 mmHg 39%
    17:00 +34°C° 0 mm 1 mps 722 mmHg 43%
    18:00 +32°C° 0.1 mm 1 mps 723 mmHg 50%
    19:00 +31°C° 0.1 mm 2 mps 723 mmHg 57%
    20:00 +29°C° 0.1 mm 2 mps 724 mmHg 64%
    21:00 +28°C° 0 mm 2 mps 724 mmHg 70%
    22:00 +27°C° 0 mm 2 mps 724 mmHg 77%
    23:00 +26°C° 0 mm 1 mps 724 mmHg 83%

    Tomorrow, 19 February, Monday

    Time Temperature Precipitation Wind Pressure Humidity
    00:00 +26°C° 0 mm 1 mps 724 mmHg 86%
    01:00 +25°C° 0 mm 1 mps 724 mmHg 89%
    02:00 +25°C° 0 mm 1 mps 723 mmHg 91%
    03:00 +25°C° 0 mm 1 mps 723 mmHg 91%
    04:00 +25°C° 0 mm 1 mps 724 mmHg 91%
    05:00 +25°C° 0 mm 1 mps 724 mmHg 91%
    06:00 +26°C° 0 mm 1 mps 724 mmHg 85%
    07:00 +27°C° 0 mm 1 mps 725 mmHg 78%
    08:00 +28°C° 0 mm 2 mps 725 mmHg 72%
    09:00 +31°C° 0 mm 2 mps 725 mmHg 62%
    10:00 +34°C° 0 mm 2 mps 725 mmHg 53%
    11:00 +36°C° 0 mm 2 mps 725 mmHg 44%
    12:00 +36°C° 1.3 mm 2 mps 724 mmHg 45%
    13:00 +35°C° 1.3 mm 1 mps 723 mmHg 47%
    14:00 +34°C° 1.3 mm 1 mps 722 mmHg 48%
    15:00 +34°C° 0.2 mm 1 mps 722 mmHg 49%
    16:00 +33°C° 0.2 mm 1 mps 722 mmHg 49%
    17:00 +33°C° 0.2 mm 1 mps 722 mmHg 50%
    18:00 +31°C° 0.7 mm 1 mps 723 mmHg 57%
    19:00 +29°C° 0.7 mm 1 mps 723 mmHg 64%
    20:00 +28°C° 0.7 mm 1 mps 724 mmHg 71%
    21:00 +27°C° 0.3 mm 1 mps 724 mmHg 75%
    22:00 +26°C° 0.3 mm 1 mps 724 mmHg 79%
    23:00 +26°C° 0.3 mm 1 mps 724 mmHg 84%

    Day after tomorrow, 20 February, Tuesday

    Time Temperature Precipitation Wind Pressure Humidity
    00:00 +25°C° 0 mm 1 mps 723 mmHg 86%
    01:00 +25°C° 0 mm 1 mps 723 mmHg 89%
    02:00 +24°C° 0 mm 1 mps 723 mmHg 91%
    03:00 +24°C° 0.3 mm 1 mps 723 mmHg 92%
    04:00 +24°C° 0.3 mm 1 mps 723 mmHg 94%
    05:00 +24°C° 0.3 mm 1 mps 723 mmHg 95%
    06:00 +25°C° 0.5 mm 1 mps 724 mmHg 89%
    07:00 +26°C° 0.5 mm 1 mps 724 mmHg 83%
    08:00 +28°C° 0.5 mm 1 mps 725 mmHg 77%
    09:00 +30°C° 0.6 mm 1 mps 725 mmHg 66%
    10:00 +33°C° 0.6 mm 1 mps 725 mmHg 56%
    11:00 +36°C° 0.6 mm 1 mps 724 mmHg 45%
    12:00 +36°C° 0 mm 1 mps 723 mmHg 42%
    13:00 +36°C° 0 mm 1 mps 722 mmHg 40%
    14:00 +36°C° 0 mm 1 mps 722 mmHg 37%
    15:00 +35°C° 0.3 mm 1 mps 722 mmHg 44%
    16:00 +33°C° 0.3 mm 1 mps 722 mmHg 50%
    17:00 +31°C° 0.3 mm 1 mps 722 mmHg 57%
    18:00 +30°C° 0.6 mm 1 mps 722 mmHg 63%
    19:00 +29°C° 0.6 mm 1 mps 723 mmHg 70%
    20:00 +27°C° 0.6 mm 1 mps 723 mmHg 76%
    21:00 +27°C° 1.1 mm 1 mps 724 mmHg 80%
    22:00 +26°C° 1.1 mm 1 mps 724 mmHg 83%
    23:00 +24°C° 1.1 mm 0 mps 724 mmHg 86%

    21 February, Wednesday

    Time Temperature Precipitation Wind Pressure Humidity
    00:00 +26°C° 0.4 mm 1 mps 724 mmHg 88%
    01:00 +25°C° 0.4 mm 1 mps 723 mmHg 90%
    02:00 +25°C° 0.4 mm 1 mps 723 mmHg 92%
    03:00 +25°C° 0.2 mm 1 mps 723 mmHg 93%
    04:00 +25°C° 0.2 mm 1 mps 723 mmHg 94%
    05:00 +24°C° 0.2 mm 1 mps 724 mmHg 95%
    06:00 +25°C° 0 mm 1 mps 724 mmHg 91%
    07:00 +26°C° 0 mm 1 mps 725 mmHg 87%
    08:00 +27°C° 0 mm 2 mps 725 mmHg 83%
    09:00 +29°C° 0.3 mm 2 mps 725 mmHg 74%
    10:00 +31°C° 0.3 mm 2 mps 725 mmHg 64%
    11:00 +34°C° 0.3 mm 2 mps 724 mmHg 54%
    12:00 +35°C° 0.1 mm 2 mps 723 mmHg 48%
    13:00 +37°C° 0.1 mm 2 mps 722 mmHg 42%
    14:00 +38°C° 0.1 mm 2 mps 721 mmHg 36%
    15:00 +36°C° 0 mm 1 mps 721 mmHg 40%
    16:00 +34°C° 0 mm 1 mps 722 mmHg 44%
    17:00 +33°C° 0 mm 1 mps 722 mmHg 47%
    18:00 +32°C° 0.1 mm 1 mps 722 mmHg 54%
    19:00 +30°C° 0.1 mm 1 mps 723 mmHg 61%
    20:00 +28°C° 0.1 mm 2 mps 723 mmHg 68%
    21:00 +28°C° 0 mm 2 mps 723 mmHg 73%
    22:00 +27°C° 0 mm 2 mps 723 mmHg 78%
    23:00 +26°C° 0 mm 2 mps 723 mmHg 84%

    22 February, Thursday

    Time Temperature Precipitation Wind Pressure Humidity
    00:00 +26°C° 0 mm 2 mps 723 mmHg 85%
    01:00 +25°C° 0 mm 2 mps 722 mmHg 87%
    02:00 +25°C° 0 mm 2 mps 722 mmHg 88%
    03:00 +25°C° 0 mm 1 mps 722 mmHg 89%
    04:00 +24°C° 0 mm 1 mps 722 mmHg 90%
    05:00 +24°C° 0 mm 1 mps 723 mmHg 90%
    06:00 +25°C° 0 mm 1 mps 723 mmHg 84%
    07:00 +26°C° 0 mm 2 mps 724 mmHg 78%
    08:00 +28°C° 0 mm 2 mps 724 mmHg 72%
    09:00 +30°C° 0 mm 2 mps 724 mmHg 64%
    10:00 +32°C° 0 mm 2 mps 724 mmHg 56%
    11:00 +35°C° 0 mm 2 mps 723 mmHg 47%
    12:00 +36°C° 0.1 mm 2 mps 722 mmHg 44%
    13:00 +36°C° 0.1 mm 2 mps 722 mmHg 41%
    14:00 +37°C° 0.1 mm 2 mps 721 mmHg 38%
    15:00 +36°C° 0 mm 2 mps 721 mmHg 41%
    16:00 +35°C° 0 mm 2 mps 721 mmHg 43%
    17:00 +34°C° 0 mm 2 mps 721 mmHg 46%
    18:00 +31°C° 0.4 mm 2 mps 721 mmHg 57%
    19:00 +29°C° 0.4 mm 2 mps 722 mmHg 68%
    20:00 +27°C° 0.4 mm 2 mps 722 mmHg 79%
    21:00 +27°C° 0.1 mm 2 mps 722 mmHg 82%
    22:00 +26°C° 0.1 mm 2 mps 722 mmHg 85%
    23:00 +26°C° 0.1 mm 2 mps 723 mmHg 88%

    23 February, Friday

    Time Temperature Precipitation Wind Pressure Humidity
    00:00 +25°C° 0 mm 2 mps 722 mmHg 89%
    01:00 +25°C° 0 mm 2 mps 722 mmHg 90%
    02:00 +24°C° 0 mm 2 mps 722 mmHg 91%
    03:00 +24°C° 0 mm 1 mps 722 mmHg 92%
    04:00 +24°C° 0 mm 1 mps 722 mmHg 92%
    05:00 +23°C° 0 mm 1 mps 722 mmHg 92%
    06:00 +25°C° 0 mm 1 mps 723 mmHg 84%
    07:00 +26°C° 0 mm 1 mps 723 mmHg 76%
    08:00 +27°C° 0 mm 1 mps 724 mmHg 68%
    09:00 +30°C° 0 mm 2 mps 724 mmHg 58%
    10:00 +34°C° 0 mm 2 mps 723 mmHg 47%
    11:00 +36°C° 0 mm 2 mps 723 mmHg 37%
    12:00 +36°C° 0 mm 1 mps 723 mmHg 35%
    13:00 +36°C° 0 mm 1 mps 722 mmHg 33%
    14:00 +36°C° 0 mm 1 mps 721 mmHg 31%
    15:00 +35°C° 0 mm 1 mps 721 mmHg 35%
    16:00 +34°C° 0 mm 1 mps 721 mmHg 38%
    17:00 +33°C° 0 mm 1 mps 722 mmHg 42%
    18:00 +31°C° 0.1 mm 1 mps 722 mmHg 49%
    19:00 +29°C° 0.1 mm 1 mps 722 mmHg 57%
    20:00 +28°C° 0.1 mm 1 mps 723 mmHg 64%
    21:00 +27°C° 0.1 mm 1 mps 723 mmHg 70%
    22:00 +26°C° 0.1 mm 1 mps 723 mmHg 76%
    23:00 +26°C° 0.1 mm 2 mps 724 mmHg 83%
    Show more